Location: München
(48.1351°N, 11.5820°E)
Time: 22:34:08
(UTC+01:00)

ISS - Pass Details

Date: 27 January 2020
Orbit: 415 x 423 km, 51.6° (Epoch: 25 February)

Event Time Altitude Azimuth Distance (km) Brightness Sun altitude
Rises 19:11:10 0° 273° (W) 2,378 1.6 -21.0°
Reaches altitude 10° 19:13:20 10° 280° (W) 1,512 0.1 -21.4°
Enters shadow 19:16:11 42° 331° (NNW) 614 -2.8 -21.9°
